Location: *
(48.7897°S, 165.4436°W)
Time: 18:23:34
(UTC+00:00)

Daily predictions for brighter satellites

Satellite Brightness Start Highest point End
(mag) Time Altitude Azimuth Time Altitude Azimuth Time Altitude Azimuth
CZ-4C R/B 3.9 13:25:54 42° E 13:25:54 42° E 13:31:17 10° SE
Cosmos 2227 Rocket 4.4 13:31:47 19° S 13:31:47 19° S 13:33:24 10° SSE
CENTAUR R/B 4.0 13:44:15 36° ENE 13:44:28 36° ENE 13:50:48 10° SE
COSMOS 2455 4.4 13:50:48 30° SSE 13:50:48 30° SSE 13:53:56 10° SSE
ATLAS CENTAUR R/B 4.3 13:56:07 16° ESE 13:56:07 16° ESE 13:57:07 10° SE
SL-16 R/B 3.9 13:51:09 10° SSE 13:56:43 32° E 13:58:08 29° ENE
SeaSat 1 4.5 13:53:22 10° E 13:57:20 25° SE 13:58:55 21° SSE
Cosmos 2297 Rocket 4.5 14:00:15 16° S 14:00:15 16° S 14:01:55 10° S
USA 234 3.9 14:04:30 10° ESE 14:10:45 46° S 14:10:50 46° S
H-2A R/B 3.9 14:15:19 25° S 14:15:19 25° S 14:17:36 10° S
Cosmos 2263 Rocket 3.6 14:34:57 28° S 14:34:57 28° S 14:38:11 10° SSE
Cosmos 1655 Rocket 3.9 14:44:15 10° S 14:50:44 89° E 14:57:03 10° N
NOSS 3-3 (A) 4.3 14:49:15 28° SSW 14:52:48 63° SE 14:58:29 10° ENE
Timation 2 Rocket 4.5 14:50:56 36° NNE 14:53:06 53° ENE 14:58:58 10° SE
NOSS 3-2 (A) 4.4 14:49:04 34° NNW 14:53:12 65° NE 15:00:52 10° SE
Cosmos 1844 3.7 14:52:45 69° NNE 14:53:20 76° ENE 14:59:06 10° SSE
Cosmos 2266 Rocket 4.3 14:47:58 10° SSW 14:53:04 53° SW 14:53:04 53° SW
Meteor 1-13 Rocket 4.1 14:49:19 10° S 14:54:58 85° E 15:00:32 10° NNE
CZ-2C R/B 3.2 14:49:38 10° S 14:53:59 48° SSW 14:53:59 48° SSW
ARGOS 3.3 14:52:28 10° NNE 14:57:50 71° ESE 15:03:16 10° S
NOSS 3-3 (C) 4.2 14:55:32 25° SSW 14:59:27 65° SE 15:05:05 10° NE
ARIANE 5 R/B 2.5 14:56:59 10° NNE 15:02:09 85° ESE 15:07:19 10° SSW
BREEZE-M DEB (TANK) 3.2 15:05:16 78° ESE 15:05:16 78° ESE 15:12:46 10° E
Cosmos 1269 Rocket 4.2 15:00:58 10° SSW 15:06:22 74° ESE 15:11:42 10° NNE
Sich 1 3.2 15:08:53 70° SSE 15:08:53 70° SSE 15:12:54 10° SSE
CZ-4C R/B 3.0 15:11:02 48° W 15:13:01 60° SW 15:19:46 10° SE
Cosmos 2227 Rocket 4.3 15:13:35 13° SSW 15:13:36 13° SSW 15:16:10 10° S
Cosmos 1743 Rocket 3.5 15:14:19 80° SSE 15:14:19 80° SSE 15:18:34 10° S
UNK 3.6 15:10:50 10° SSE 15:15:29 81° WSW 15:15:29 81° WSW
ERS-1 4.4 15:12:58 10° NNE 15:18:08 81° WNW 15:23:26 10° SSW
Cosmos 1844 Rocket 2.6 15:19:02 59° W 15:19:40 64° WSW 15:25:19 10° SSE
NOAA 12 4.0 15:18:09 10° NNE 15:23:27 88° WNW 15:28:49 10° SSW
SL-23 DEB 3.8 15:25:02 63° ESE 15:25:02 63° ESE 15:28:20 10° ESE
Cosmos 1733 3.5 15:25:55 55° SSE 15:25:55 55° SSE 15:28:50 10° S
Cosmos 220 Rocket 3.8 15:27:45 75° NNW 15:27:45 75° NNW 15:31:43 10° NNE
Cosmos 967 Rocket 4.4 15:25:52 47° WNW 15:27:37 66° SW 15:33:53 10° SE
Lacrosse 5 rocket 3.8 15:32:47 12° N 15:32:47 12° N 15:33:13 10° N
ATLAS CENTAUR R/B 2.3 15:31:16 37° SSW 15:31:16 37° SSW 15:35:02 10° SSE
Cosmos 1140 Rocket 4.3 15:26:13 10° SSW 15:31:18 51° ESE 15:36:20 10° NE
SeaSat 1 2.3 15:29:26 10° NNE 15:34:22 72° WNW 15:38:38 14° SW
CENTAUR R/B 2.8 15:31:26 35° WNW 15:34:58 69° SW 15:41:34 10° SE
COSMOS 2455 4.5 15:33:57 18° SW 15:35:18 19° SSW 15:39:33 10° SSE
Cosmos 1818 4.3 15:31:07 12° SSW 15:36:01 50° SE 15:41:15 10° ENE
Cosmos 489 Rocket 4.4 15:32:30 28° NNW 15:36:02 77° WSW 15:42:22 10° SSE
Cosmos 1805 3.4 15:37:05 17° N 15:39:52 69° E 15:43:41 10° SSE
SL-16 R/B 2.7 15:34:29 10° S 15:40:32 52° WSW 15:43:13 31° WNW
CZ-2D R/B 3.4 15:36:44 10° N 15:41:06 70° WNW 15:45:31 10° SSW
IRS-1C 4.4 15:36:43 10° N 15:41:50 43° W 15:47:00 10° SSW
BREEZE-M DEB (TANK) 4.3 15:36:24 25° WSW 15:42:02 53° NW 15:45:49 10° NE
BREEZE-M DEB (TANK) 2.7 15:43:20 57° WNW 15:43:46 64° NNW 15:50:09 10° ENE
Meteor 1-11 Rocket 3.9 15:41:39 34° NW 15:43:52 52° WSW 15:49:33 10° S
SL-19 R/B 4.2 15:39:45 10° N 15:44:56 55° WNW 15:50:25 10° SSW
DEBRIS 2.7 15:44:47 56° WSW 15:45:25 80° S 15:52:20 10° E
PSLV R/B 3.7 15:42:21 10° NNE 15:46:29 72° ESE 15:50:43 10° S
Cosmos 1862 Rocket 3.6 15:44:38 10° S 15:49:13 85° E 15:53:45 10° N
H-2A R/B 4.2 15:55:54 11° SW 15:55:54 11° SW 15:56:14 10° SW
SMAP 4.1 15:47:37 10° NE 15:52:08 48° ESE 15:56:42 10° S
GEOS 3 Rocket 4.2 15:47:40 10° SE 15:52:51 56° NE 15:58:04 10° NNW
USA 234 4.0 15:46:47 10° E 15:53:04 48° SSE 15:58:10 16° SW
SJ-12 3.9 15:50:44 10° N 15:54:40 54° W 15:58:40 10° SSW
SL-08 RB Rocket 3.8 15:52:12 10° N 15:56:37 49° W 16:01:04 10° SSW
Cosmos 1833 Rocket 2.7 15:52:31 10° SSW 15:58:16 83° ESE 16:03:57 10° NNE
Meteor 2-9 Rocket 4.5 15:56:11 15° NW 16:00:57 51° WSW 16:06:46 10° S
Okean 1-7 3.6 16:00:01 10° S 16:04:23 59° ESE 16:08:39 10° NNE
NOSS 3-2 (C) 4.2 15:56:19 10° NW 16:05:15 83° NE 16:12:57 10° SE
BREEZE-M R/B 3.0 16:06:25 41° NW 16:06:50 47° NNW 16:10:14 10° NE
SL-08 R/B 4.4 16:00:49 10° SSW 16:07:01 69° W 16:13:14 10° N
Cosmos 1470 Rocket 4.1 16:02:52 10° N 16:07:19 63° E 16:11:50 10° SSE
Cosmos 1553 Rocket 3.9 16:04:32 10° NNW 16:10:38 73° W 16:16:50 10° S
Cosmos 2082 Rocket 3.6 16:07:00 10° SSW 16:12:19 39° SE 16:17:36 10° ENE
Cosmos 1400 Rocket 2.7 16:13:51 10° SSW 16:17:41 56° W 16:21:26 10° N
Cosmos 2228 Rocket 3.7 16:14:00 10° SSW 16:18:17 36° W 16:22:28 10° NNW
Cosmos 2263 Rocket 4.2 16:16:50 10° SW 16:18:39 11° SSW 16:20:28 10° S
Cosmos 1766 3.7 16:15:08 10° N 16:18:52 63° E 16:22:41 10° SSE
Cosmos 1975 2.9 16:15:24 10° NNW 16:19:18 51° WSW 16:23:15 10° S
Cosmos 2278 Rocket 3.5 16:15:04 10° N 16:20:24 44° ENE 16:25:47 10° SE
Okean 2 3.6 16:16:24 10° S 16:20:32 73° E 16:24:38 10° NNE
Cosmos 1707 Rocket 4.0 16:16:23 10° SSW 16:20:34 39° W 16:24:41 10° NNW
Cosmos 1666 Rocket 3.7 16:16:35 10° NNW 16:20:53 51° WSW 16:25:13 10° S
Cosmos 2251 Rocket 3.6 16:16:00 10° SSW 16:21:28 85° ESE 16:26:51 10° NNE
BREEZE M DEB (TANK) 2.9 16:19:35 20° NW 16:21:38 64° NNE 16:28:52 10° ESE
EXPRESS MD2 3.4 16:22:44 23° NW 16:22:46 23° NNW 16:24:37 10° NNE
BREEZE-M DEB (TANK) 2.6 16:28:07 23° W 16:29:41 68° NNW 16:32:05 10° ENE
CZ-2D R/B 3.7 16:27:01 10° NNW 16:30:28 35° W 16:33:58 10° SSW
SL-14 R/B 4.0 16:29:03 10° SSW 16:32:29 29° W 16:35:53 10° NNW
Cosmos 1340 2.5 16:30:58 10° NNW 16:34:24 53° WSW 16:37:54 10° S
Cosmos 1933 Rocket 4.1 16:30:14 10° N 16:34:33 63° E 16:38:57 10° SSE
ARGOS 4.4 16:34:49 10° NW 16:38:38 19° W 16:42:30 10° SW
ARIANE 5 R/B 4.0 16:39:01 10° WNW 16:41:52 15° W 16:44:45 10° SW
NOSS 3-2 (A) 4.4 16:36:31 11° WNW 16:44:34 49° SW 16:51:41 10° SE
Cosmos 192 4.3 16:42:51 10° NNW 16:47:49 73° WSW 16:52:51 10° SSE
Cosmos 1190 Rocket 4.1 16:43:46 10° SSW 16:49:06 86° ESE 16:54:21 10° NNE
Okean 3 4.2 16:47:05 10° SSW 16:50:52 31° W 16:54:38 10° NNW
Helios 1B rocket 2.3 16:48:42 10° N 16:52:38 64° WNW 16:56:38 10° SSW
APEX 4.4 16:50:16 10° S 16:52:44 29° SE 16:55:19 10° ENE
CORIOLIS 4.3 16:48:02 10° N 16:53:23 54° W 16:58:46 10° SSW
Cosmos 1745 Rocket 4.2 16:47:33 10° SSW 16:53:42 50° W 16:59:44 10° NNW
Meteor 1-31 Rocket 2.6 16:51:14 10° N 16:54:58 71° WNW 16:58:45 10° SSW
USA 267 4.3 16:52:12 10° ESE 16:58:36 49° NE 17:04:56 10° NNW
Cosmos 1633 Rocket 4.0 16:55:58 10° NW 16:59:47 27° WSW 17:03:40 10° S
SAR-Lupe-2 3.5 16:56:53 10° NNE 17:00:30 81° WNW 17:04:12 10° SSW
Cosmos 1356 Rocket 4.1 16:57:18 10° SSW 17:01:09 33° W 17:04:55 10° NNW
Aureole 2 4.0 16:59:36 10° NNW 17:02:30 65° WSW 17:05:30 10° SSE
USA 238 DEB 4.0 16:54:58 10° NW 17:02:46 81° SW 17:10:07 10° SE
CZ-4C R/B 3.8 16:56:29 10° WSW 17:02:46 27° SSW 17:08:03 10° SE
USA 238 4.0 16:55:05 10° NW 17:02:54 82° SW 17:10:16 10° SE
Cosmos 1844 Rocket 4.3 17:01:11 10° WSW 17:04:44 17° SW 17:08:19 10° S
CZ-2C R/B 3.0 17:01:37 10° N 17:05:03 40° W 17:08:30 10° SSW
Cosmos 1607 4.0 17:00:32 10° SW 17:06:35 61° WNW 17:12:40 10° NNE
Cosmos 1954 Rocket 4.1 17:01:26 10° SSW 17:06:42 89° ESE 17:11:54 10° NNE
YAOGAN 1 3.9 17:05:06 10° NE 17:09:13 43° ESE 17:13:23 10° S
Cosmos 2242 Rocket 4.0 17:04:38 10° S 17:09:19 77° E 17:13:55 10° NNE
ATLAS CENTAUR R/B 3.6 17:07:47 10° SW 17:09:56 13° SSW 17:12:02 10° S
COSMOS 2406 3.4 17:06:02 10° SSW 17:11:48 82° ESE 17:17:32 10° NNE
ADEOS Rocket 4.2 17:05:49 10° NNE 17:13:26 64° ESE 17:21:09 10° S
